Regional Weather Roundup
Issued by NWS

Home | Current Version | Previous Version | Text Only | Print | Product List | Glossary Off
Versions: 1 2 3 4 5 6 7 8 9 10 11 12 13 14 15 16 17 18 19 20 21 22 23 24 25 26 27 28 29 30 31 32 33 34 35 36 37 38 39 40 41 42 43 44 45 46 47 48 49 50

000
ASUS45 KBOI 180510
RWRID
WEATHER ROUNDUP FOR IDAHO
NATIONAL WEATHER SERVICE BOISE ID
1000 PM MST WED DEC 17 2014

NOTE: "FAIR" INDICATES FEW OR NO CLOUDS BELOW 12000 FEET
WITH NO SIGNIFICANT WEATHER AND/OR OBSTRUCTIONS TO VISIBILITY

IDZ012-014-180600-
SOUTHWEST IDAHO


CITY           SKY/WX    TMP DP  RH WIND       PRES   REMARKS
BOISE          CLOUDY    39  33  79 SW5       30.01S
CALDWELL       CLOUDY    36  28  75 SW3       30.05R
MOUNTAIN HOME  CLOUDY    39  32  75 E13       30.01S WCI  32
$$

IDZ016-017-180600-
SOUTHCENTRAL IDAHO


CITY           SKY/WX    TMP DP  RH WIND       PRES   REMARKS
BURLEY         PTCLDY    31  28  89 E5        30.03R WCI  26
JEROME         CLEAR     28  24  85 E8        30.04R WCI  20
TWIN FALLS     CLEAR     29  23  78 S8        30.03S WCI  21
$$

IDZ019>023-180600-
SOUTHEAST IDAHO


CITY           SKY/WX    TMP DP  RH WIND       PRES   REMARKS
IDAHO FALLS    PTCLDY    17  15  92 CALM      30.05S FOG
POCATELLO      CLOUDY    28  28 100 N3        30.05S
REXBURG        CLOUDY    29  26  89 S3        30.04R
$$

IDZ006-010-011-018-031-032-180600-
CENTRAL IDAHO MOUNTAINS


CITY           SKY/WX    TMP DP  RH WIND       PRES   REMARKS
MCCALL         CLOUDY    32  30  92 CALM      29.96R
HAILEY         CLOUDY    28  23  80 NW9       30.04S WCI  20
STANLEY          N/A     22  17  81 CALM      30.00R
SALMON         PTCLDY    18  16  93 CALM      30.05S
CHALLIS        CLEAR     16  14  92 CALM      30.04S
$$

IDZ002-004-006-007-026-180600-
NORTHERN IDAHO


CITY           SKY/WX    TMP DP  RH WIND       PRES   REMARKS
LEWISTON       LGT RAIN  40  36  86 CALM      29.96R
LOWELL           N/A     35  33  92 VRB3      30.03R
COEUR D`ALENE  CLOUDY    34  30  86 NE7       29.95R WCI  28
MULLAN PASS    FOG       27  27 100 VRB5      29.88S VSB 3/4 WCI  22
$$


USA.gov is the U.S. government's official web portal to all federal, state and local government web resources and services.